Zurück zum Katalog

BREEZE-M DEB

LostHEO
NORAD 38570·DEBRIS·🇷🇺 Russia

Gestartet Mar 14, 2008 von Baikonur Cosmodrome

Loading…

Nächste Überflüge (nächste 24 Stunden)

TLE

VeraltetSource: Space-Track

Epoche: Mar 21, 2014, 04:15 UTC

1 38570U 08011R   14080.17765946 +.00001395 +00000-0 +16122-1 0  9992
2 38570 048.6827 125.0716 6526371 304.8975 010.0934 03.01444017027479

Verfolge BREEZE-M DEB in Echtzeit mit AllMySat

Download on the App Store